Content
SEND FEEDBACK

Daily
Averages
Monthly
Summary
France

ARCUEIL, FRANCE


Home > Europe > France
Elevation: 253 feet     Latitude: 48 49N     Longitude: 002 19E

WEATHER
 
SELECT A DAY
Number of Records: 136,180;   Date Range: 7/19/96 - 12/18/14
 
SHARE

PRINT THIS DATA

[ ← Previous Day ]
WEATHER ALMANAC - JANUARY 31, 2013
[ Next Day → ]
[ °C ]   °F
Weather ElementAverageHighLow
Temperature44.9 °F50 °F (1:00 pm)39.2 °F (4:00 am)
Dewpoint41.1 °F48.2 °F (4:00 pm)35.6 °F (1:30 am)
Humidity86.7 %100 % (6:30 am)76 % (12:30 am)
Barometer30.14 in30.24 in (1:00 am)30.09 in (12:30 pm)
Wind Speed9.2 mph18.4 mph (12:00 pm)
Wind Gust31.1 mph (12:00 pm)
Weather ElementAverage
Visibility6 mi
Wind DirectionSW (222.8 °)

Weather ElementTotal
Precipitation---
Heating Degree Days20.4 (Base 65)
Averaged from 47 records on January 31, 2013
WEATHER CONDITIONS BREAKOUT
WIND DIRECTION BREAKOUT
WEATHER BY HOUR - JANUARY 31, 2013
[ °C ]   °F
Local TimeTemperatureDewpointHumidityBarometerVisibilityWind DirectionWind SpeedGust SpeedPrecipitationEventsConditions
12:30 AM44.6 °F37.4 °F76 %30.21 in6.2 miWSW (250°)10.4 mph
1:00 AM44.6 °F37.4 °F76 %30.24 in6.2 miWSW (250°)6.9 mph
1:30 AM42.8 °F35.6 °F76 %30.21 in6.2 miVariable2.3 mph
2:00 AM41.0 °F35.6 °F81 %30.21 in6.2 miSW (220°)4.6 mph
2:30 AM41.0 °F37.4 °F87 %30.24 in6.2 miSW (230°)6.9 mph
3:00 AM41.0 °F37.4 °F87 %30.24 in6.2 miSW (230°)6.9 mph
3:30 AM41.0 °F37.4 °F87 %30.21 in6.2 miSW (220°)8.1 mph
4:00 AM39.2 °F37.4 °F93 %30.21 in6.2 miSW (220°)6.9 mph
4:30 AM39.2 °F37.4 °F93 %30.18 in6.2 miSW (230°)5.8 mph
5:00 AM39.2 °F37.4 °F93 %30.18 in6.2 miSSW (200°)3.5 mph
5:30 AM39.2 °F37.4 °F93 %30.18 in6.2 miSouth (190°)6.9 mphMostly Cloudy
6:00 AM39.2 °F37.4 °F93 %30.18 in6.2 miSSW (200°)5.8 mph
6:30 AM39.2 °F39.2 °F100 %30.18 in6.2 miSSW (200°)9.2 mphMostly Cloudy
7:00 AM41.0 °F39.2 °F93 %30.15 in3.1 miSSW (200°)9.2 mphOvercast
7:30 AM39.2 °F39.2 °F100 %30.15 in0.7 miSSW (200°)9.2 mphMist
8:00 AM41.0 °F41.0 °F100 %30.15 inSouth (180°)9.2 mphMist
8:30 AM41.0 °F41.0 °F100 %30.15 in6.2 miSSW (200°)11.5 mphOvercast
9:00 AM42.8 °F41.0 °F93 %30.15 in6.2 miSSW (210°)13.8 mph26.5 mphOvercast
9:30 AM42.8 °F41.0 °F93 %30.15 in6.2 miSSW (210°)11.5 mphOvercast
10:00 AM42.8 °F41.0 °F93 %30.12 in6.2 miSSW (210°)11.5 mphOvercast
10:30 AM44.6 °F41.0 °F87 %30.12 in6.2 miSSW (210°)12.7 mphOvercast
11:00 AM44.6 °F42.8 °F93 %30.12 in6.2 miSSW (210°)15.0 mph26.5 mphOvercast
11:30 AM46.4 °F42.8 °F87 %30.12 in6.2 miSSW (210°)15.0 mphOvercast
12:00 PM48.2 °F42.8 °F82 %30.12 in6.2 miSW (220°)18.4 mph31.1 mphOvercast
12:30 PM48.2 °F44.6 °F87 %30.09 in6.2 miSW (220°)18.4 mph29.9 mphOvercast
1:00 PM50.0 °F42.8 °F76 %30.09 in6.2 miSW (230°)18.4 mphOvercast
1:30 PM50.0 °F42.8 °F76 %30.09 in6.2 miSW (230°)15.0 mphOvercast
2:00 PM50.0 °F44.6 °F82 %30.09 in6.2 miWSW (240°)13.8 mphOvercast
2:30 PM48.2 °F44.6 °F87 %30.09 inWest (260°)13.8 mphDrizzle
3:00 PM48.2 °F46.4 °F93 %30.09 inWest (270°)6.9 mphRainLight Rain
3:30 PM48.2 °F46.4 °F93 %30.09 in6.2 miWSW (250°)8.1 mphRainLight Rain
4:00 PM50.0 °F48.2 °F94 %30.09 in6.2 miWSW (250°)8.1 mphOvercast
4:30 PM50.0 °F44.6 °F82 %30.09 in6.2 miWest (260°)11.5 mphPartly Cloudy
5:00 PM50.0 °F44.6 °F82 %30.09 in6.2 miWSW (250°)11.5 mphPartly Cloudy
5:30 PM48.2 °F42.8 °F82 %30.09 in6.2 miWSW (250°)11.5 mph
6:00 PM48.2 °F41.0 °F76 %30.09 in6.2 miWest (260°)11.5 mph
6:30 PM48.2 °F41.0 °F76 %30.09 in6.2 miWest (260°)10.4 mph
7:00 PM48.2 °F41.0 °F76 %30.09 in6.2 miWSW (250°)9.2 mph
7:30 PM46.4 °F41.0 °F81 %30.12 in6.2 miWSW (240°)4.6 mphScattered Clouds
8:00 PM46.4 °F41.0 °F81 %30.12 in6.2 miWSW (240°)5.8 mphMostly Cloudy
8:30 PM46.4 °F41.0 °F81 %30.12 in6.2 miWSW (240°)4.6 mph
9:00 PM46.4 °F41.0 °F81 %30.09 in6.2 miWSW (240°)4.6 mph
9:30 PM46.4 °F41.0 °F81 %30.09 in6.2 miSW (230°)4.6 mphMostly Cloudy
10:00 PM46.4 °F42.8 °F87 %30.12 in6.2 miWSW (240°)4.6 mphMostly Cloudy
10:30 PM46.4 °F42.8 °F87 %30.09 in6.2 miSW (230°)3.5 mphMostly Cloudy
11:00 PM46.4 °F42.8 °F87 %30.09 in6.2 miSSW (200°)4.6 mphMostly Cloudy
11:30 PM46.4 °F44.6 °F93 %30.09 in6.2 miSW (230°)5.8 mphMostly Cloudy
Hourly data recorded from LFPV, located miles away from Arcueil, France







STORIES FROM OUR PARTNERS